Weather History for Greenville Downtown, SC

Change the Weather History Date:

Tuesday, October 4, 2011

  Actual Average Record
Temperature  
Mean Temperature 65 °F -  
Max Temperature 79 °F 72 °F 86 °F (2013)
Min Temperature 51 °F 54 °F 48 °F (2003)
Growing Degree Days 15 (Base 50)    
Moisture  
Dew Point 43 °F    
Average Humidity 47    
Maximum Humidity 71    
Minimum Humidity 31    
Precipitation  
Precipitation 0.00 in - - ()
Sea Level Pressure  
Sea Level Pressure 30.21 in    
Wind  
Wind Speed 4 mph (North)    
Max Wind Speed 12 mph    
Max Gust Speed -    
Visibility 10 miles    
Events      
Averages and records for this station are not official NWS values.
T = Trace of Precipitation, MM = Missing Value Source: NWS Daily Summary

Daily Weather History Graph

Daily Weather History Graph

Search for Another Location

Airport:

Trip Planner

Search our weather history database for the weather conditions in past years. The results will help you decide how hot, cold, wet, or windy it might be!

Date:

Astronomy

Oct. 04, 2011 Rise Set
Actual Time 7:26 AM EDT 7:09 PM EDT
Civil Twilight 7:00 AM EDT 7:34 PM EDT
Nautical Twilight 6:31 AM EDT 8:04 PM EDT
Astronomical Twilight 6:02 AM EDT 8:33 PM EDT
Moon 2:55 PM EDT (10/4) 12:24 AM EDT (10/4)
Length of Visible Light 12h 33m
Length of Day
11h 43m
First Quarter, 56% of the Moon is Illuminated
Oct 4
First Quarter
Oct 11
Full
Oct 19
Last Quarter
Oct 26
New
Nov 2
First Quarter

Hourly Weather History & Observations

Time (EDT) Temp. Dew Point Humidity Pressure Visibility Wind Dir Wind Speed Gust Speed Precip Events Conditions
12:53 AM 57.9 °F 39.9 °F 51% 30.19 in 10.0 mi Calm Calm - N/A   Clear
1:53 AM 55.9 °F 39.9 °F 55% 30.20 in 10.0 mi NNE 5.8 mph - N/A   Clear
2:53 AM 57.0 °F 37.9 °F 49% 30.18 in 10.0 mi NE 3.5 mph - N/A   Clear
3:53 AM 54.0 °F 41.0 °F 62% 30.18 in 10.0 mi SE 3.5 mph - N/A   Clear
4:53 AM 54.0 °F 41.0 °F 62% 30.19 in 10.0 mi Calm Calm - N/A   Clear
5:53 AM 51.1 °F 41.0 °F 68% 30.21 in 10.0 mi North 3.5 mph - N/A   Clear
7:53 AM 51.1 °F 42.1 °F 71% 30.25 in 10.0 mi Calm Calm - N/A   Clear
8:53 AM 57.0 °F 42.1 °F 57% 30.26 in 10.0 mi Calm Calm - N/A   Clear
9:53 AM 62.1 °F 42.1 °F 48% 30.27 in 10.0 mi West 5.8 mph - N/A   Clear
10:53 AM 70.0 °F 42.1 °F 36% 30.26 in 10.0 mi Variable 4.6 mph - N/A   Clear
11:53 AM 72.0 °F 42.1 °F 34% 30.26 in 10.0 mi NNE 11.5 mph - N/A   Clear
12:53 PM 73.9 °F 44.1 °F 34% 30.25 in 10.0 mi NNE 10.4 mph - N/A   Clear
1:53 PM 75.9 °F 45.0 °F 33% 30.22 in 10.0 mi NNW 9.2 mph - N/A   Clear
2:53 PM 77.0 °F 46.0 °F 33% 30.19 in 10.0 mi NNW 4.6 mph - N/A   Clear
3:53 PM 79.0 °F 46.0 °F 31% 30.18 in 10.0 mi NE 10.4 mph - N/A   Clear
4:53 PM 78.1 °F 46.0 °F 32% 30.17 in 10.0 mi Variable 4.6 mph - N/A   Clear
5:53 PM 78.1 °F 46.0 °F 32% 30.17 in 10.0 mi Calm Calm - N/A   Clear
6:53 PM 75.0 °F 48.0 °F 38% 30.19 in 10.0 mi NNW 3.5 mph - N/A   Clear
9:53 PM 66.0 °F 46.0 °F 48% 30.22 in 10.0 mi North 5.8 mph - N/A   Clear
10:53 PM 62.1 °F 46.9 °F 58% 30.22 in 10.0 mi North 5.8 mph - N/A   Clear